{"data":{"norad_id":61923,"intl_designator":"2024-207M","name":"STARLINK-32537","alt_names":[],"object_type":"PAYLOAD","status":"ACTIVE","operator":null,"country":"US","launch_date":"2024-11-11","launch_site_code":"AFETR","launch_vehicle":null,"mission":null,"orbit_class":"UNKNOWN","rcs_meters":null,"size_class":null,"mass_kg":null,"dimensions":null,"purposes":["comms"],"wikipedia_slug":null,"has_3d_model":false,"image_url":null,"decayed_at":null,"tle_current":{"epoch":"2026-09-21T07:19:29.707680Z","epoch_age_seconds":116074,"freshness":"FRESH","line1":"1 61923U 24207M   26264.30520495  .00011497  00000+0  42658-3 0  9993","line2":"2 61923  42.9998 260.9213 0001593 281.8155  78.2518 15.27586190104599","mean_motion":15.2758619,"eccentricity":0.0001593,"inclination_deg":42.9998,"raan_deg":260.9213,"arg_perigee_deg":281.8155,"mean_anomaly_deg":78.2518,"bstar":0.00042658,"rev_number":10459,"period_min":94.266366731163,"perigee_km":481.93757702293,"apogee_km":484.12354500787,"semimajor_km":6861.1675610154,"source":"CELESTRAK","updated_at":"2026-09-22T09:00:49.450882Z"}}}